EDW56P LEPA-LSZH

Flight info

Callsign EDW56P
Flight time N/A
Altitude 38000
Route MEROS DCT LAPIT DCT CHELY DCT LUMAS DCT MAXIR DCT LUSOL DCT BODRU DCT OKTET DCT IRMAR DCT KINES DCT VANAS DCT MOBLO DCT LAMUR DCT KORED N871 BERSU
Aircraft A320/M-SDE3FGHIRWY/LB1

Departure

Time 2026-05-04 14:16
Airport Palma de Mallorca Airport (LEPA)

Arrival

Time N/A
Airport Zürich Airport (LSZH)
Time Latitude Longitude Altitude Speed Heading
2026-05-04 13:45 39.54533 2.73276 29 ft 0 kts 346°
2026-05-04 14:02 39.54522 2.73280 30 ft 4 kts 346°
2026-05-04 14:02 39.54501 2.73286 30 ft 3 kts 347°
2026-05-04 14:02 39.54479 2.73287 30 ft 4 kts 45°
2026-05-04 14:02 39.54465 2.73262 30 ft 3 kts 58°
2026-05-04 14:03 39.54463 2.73257 30 ft 0 kts 58°
2026-05-04 14:05 39.54472 2.73276 30 ft 6 kts 58°
2026-05-04 14:06 39.54503 2.73341 30 ft 11 kts 58°
2026-05-04 14:06 39.54554 2.73448 30 ft 15 kts 58°
2026-05-04 14:06 39.54610 2.73558 30 ft 14 kts 54°
2026-05-04 14:06 39.54661 2.73667 30 ft 15 kts 63°
2026-05-04 14:07 39.54717 2.73790 30 ft 17 kts 58°
2026-05-04 14:07 39.54779 2.73923 30 ft 17 kts 58°
2026-05-04 14:07 39.54853 2.73997 30 ft 13 kts 345°
2026-05-04 14:07 39.54926 2.73967 30 ft 10 kts 33°
2026-05-04 14:08 39.54978 2.74007 30 ft 10 kts 345°
2026-05-04 14:08 39.55060 2.73945 30 ft 18 kts 329°
2026-05-04 14:08 39.55179 2.73851 30 ft 21 kts 328°
2026-05-04 14:08 39.55308 2.73749 30 ft 22 kts 328°
2026-05-04 14:09 39.55591 2.73526 30 ft 22 kts 328°
2026-05-04 14:09 39.55679 2.73551 30 ft 14 kts 56°
2026-05-04 14:10 39.55772 2.73747 30 ft 12 kts 58°
2026-05-04 14:10 39.55813 2.73832 30 ft 11 kts 58°
2026-05-04 14:10 39.55859 2.73928 30 ft 15 kts 58°
2026-05-04 14:10 39.55917 2.74050 30 ft 16 kts 58°
2026-05-04 14:11 39.55976 2.74176 30 ft 17 kts 58°
2026-05-04 14:11 39.56103 2.74437 30 ft 16 kts 47°
2026-05-04 14:11 39.56135 2.74457 30 ft 0 kts 11°
2026-05-04 14:14 39.56136 2.74458 30 ft 1 kts 10°
2026-05-04 14:14 39.56198 2.74429 30 ft 9 kts 330°
2026-05-04 14:14 39.56245 2.74384 30 ft 9 kts 311°
2026-05-04 14:15 39.56215 2.74233 30 ft 12 kts 239°
2026-05-04 14:15 39.55678 2.73098 30 ft 133 kts 238°
2026-05-04 14:16 39.54566 2.70748 931 ft 162 kts 237°
2026-05-04 14:16 39.53977 2.69495 1587 ft 168 kts 238°
2026-05-04 14:17 39.52626 2.66574 2425 ft 205 kts 238°
2026-05-04 14:17 39.51888 2.65017 3211 ft 208 kts 237°
2026-05-04 14:17 39.50355 2.61831 4963 ft 207 kts 236°
2026-05-04 14:18 39.49380 2.60403 5494 ft 224 kts 212°
2026-05-04 14:18 39.46293 2.58573 6616 ft 256 kts 207°
2026-05-04 14:19 39.42982 2.56761 8303 ft 267 kts 187°
2026-05-04 14:19 39.41136 2.57251 9116 ft 283 kts 155°
2026-05-04 14:19 39.39571 2.58873 9954 ft 293 kts 140°
2026-05-04 14:19 39.38054 2.60669 10553 ft 304 kts 143°
2026-05-04 14:20 39.36460 2.62631 10802 ft 329 kts 139°
2026-05-04 14:20 39.34847 2.64827 11284 ft 342 kts 139°
2026-05-04 14:20 39.33126 2.66979 11974 ft 346 kts 141°
2026-05-04 14:21 39.29523 2.71245 13384 ft 356 kts 142°
2026-05-04 14:21 39.27808 2.73593 14026 ft 367 kts 127°
2026-05-04 14:21 39.26863 2.76705 14614 ft 382 kts 101°
2026-05-04 14:21 39.26687 2.80111 15207 ft 389 kts 94°
2026-05-04 14:22 39.26657 2.83623 15795 ft 394 kts 91°
2026-05-04 14:22 39.26844 2.87174 16356 ft 402 kts 81°
2026-05-04 14:22 39.27569 2.90685 16917 ft 408 kts 70°
2026-05-04 14:22 39.28748 2.94034 17475 ft 413 kts 59°
2026-05-04 14:23 39.31640 3.00539 18575 ft 423 kts 59°
2026-05-04 14:23 39.33102 3.03853 19146 ft 425 kts 59°
2026-05-04 14:23 39.34572 3.07187 19647 ft 430 kts 59°
2026-05-04 14:24 39.36063 3.10563 20146 ft 434 kts 59°
2026-05-04 14:24 39.37568 3.13971 20643 ft 439 kts 59°
2026-05-04 14:24 39.39093 3.17419 21143 ft 444 kts 60°
2026-05-04 14:24 39.40630 3.20892 21648 ft 448 kts 60°
2026-05-04 14:25 39.42188 3.24411 22139 ft 453 kts 60°
2026-05-04 14:25 39.45386 3.31530 23103 ft 462 kts 59°
2026-05-04 14:25 39.47042 3.35118 23562 ft 466 kts 59°
2026-05-04 14:26 39.48723 3.38733 23951 ft 470 kts 59°
2026-05-04 14:26 39.50417 3.42376 24361 ft 473 kts 59°
2026-05-04 14:26 39.52116 3.46044 24752 ft 476 kts 59°
2026-05-04 14:26 39.53815 3.49735 25152 ft 479 kts 59°
2026-05-04 14:27 39.55525 3.53462 25558 ft 481 kts 59°
2026-05-04 14:27 39.57239 3.57207 25933 ft 484 kts 60°
2026-05-04 14:27 39.58955 3.60969 26300 ft 487 kts 60°
2026-05-04 14:27 39.60677 3.64754 26661 ft 489 kts 60°
2026-05-04 14:28 39.62411 3.68572 27015 ft 492 kts 60°
2026-05-04 14:28 39.64153 3.72406 27358 ft 495 kts 60°
2026-05-04 14:28 39.65787 3.76007 27678 ft 497 kts 60°
2026-05-04 14:28 39.67541 3.79869 28018 ft 500 kts 60°
2026-05-04 14:29 39.71093 3.87700 28665 ft 505 kts 60°
2026-05-04 14:29 39.74678 3.95626 29314 ft 511 kts 61°
2026-05-04 14:30 39.76481 3.99622 29581 ft 514 kts 61°
2026-05-04 14:30 39.78297 4.03652 29862 ft 517 kts 61°
2026-05-04 14:30 39.82027 4.11692 30383 ft 522 kts 54°
2026-05-04 14:31 39.84349 4.15321 30625 ft 524 kts 45°
2026-05-04 14:31 39.90141 4.20987 31108 ft 519 kts 24°
2026-05-04 14:32 39.96847 4.24077 31749 ft 505 kts
2026-05-04 14:32 40.00300 4.24899 32039 ft 504 kts
2026-05-04 14:32 40.03745 4.25709 32343 ft 503 kts
2026-05-04 14:32 40.07196 4.26517 32652 ft 503 kts
2026-05-04 14:33 40.10635 4.27326 32976 ft 502 kts
2026-05-04 14:33 40.14028 4.28123 33302 ft 501 kts
2026-05-04 14:33 40.17454 4.28929 33645 ft 500 kts
2026-05-04 14:33 40.20874 4.29736 33977 ft 499 kts
2026-05-04 14:34 40.24324 4.30555 34273 ft 497 kts
2026-05-04 14:34 40.27726 4.31362 34559 ft 496 kts
2026-05-04 14:34 40.31078 4.32157 34831 ft 495 kts
2026-05-04 14:34 40.34460 4.32962 35110 ft 494 kts
2026-05-04 14:35 40.37845 4.33769 35386 ft 493 kts
2026-05-04 14:35 40.41155 4.34557 35663 ft 492 kts
2026-05-04 14:35 40.44529 4.35357 35886 ft 492 kts
2026-05-04 14:35 40.47891 4.36153 36116 ft 491 kts
2026-05-04 14:36 40.51249 4.36949 36337 ft 491 kts
2026-05-04 14:36 40.54611 4.37752 36565 ft 490 kts
2026-05-04 14:36 40.57961 4.38560 36787 ft 489 kts
2026-05-04 14:36 40.61310 4.39368 36994 ft 488 kts
2026-05-04 14:37 40.63517 4.39897 37150 ft 488 kts
2026-05-04 14:37 40.66855 4.40694 37352 ft 487 kts
2026-05-04 14:37 40.70193 4.41490 37559 ft 486 kts
2026-05-04 14:37 40.73520 4.42285 37754 ft 486 kts
2026-05-04 14:38 40.76840 4.43081 37920 ft 485 kts
2026-05-04 14:38 40.83485 4.44677 37967 ft 485 kts
2026-05-04 14:39 40.90123 4.46281 37951 ft 485 kts
2026-05-04 14:39 40.96761 4.47891 37950 ft 485 kts
2026-05-04 14:40 41.06731 4.50320 37980 ft 485 kts
2026-05-04 14:40 41.13377 4.51933 37961 ft 486 kts
2026-05-04 14:41 41.20046 4.53546 37962 ft 487 kts
2026-05-04 14:42 41.33376 4.56814 37963 ft 487 kts
2026-05-04 14:42 41.40044 4.58453 37949 ft 487 kts
2026-05-04 14:43 41.46709 4.60087 37964 ft 487 kts
2026-05-04 14:43 41.53324 4.61722 37970 ft 486 kts
2026-05-04 14:44 41.59983 4.63365 37968 ft 486 kts
2026-05-04 14:44 41.66639 4.65006 37965 ft 486 kts
2026-05-04 14:45 41.73238 4.67156 37974 ft 494 kts 16°
2026-05-04 14:45 41.79353 4.71496 37975 ft 500 kts 27°
2026-05-04 14:46 41.85320 4.76301 37975 ft 500 kts 27°
2026-05-04 14:46 41.91290 4.81100 37971 ft 500 kts 27°
2026-05-04 14:47 41.97259 4.85911 37969 ft 500 kts 27°
2026-05-04 14:47 42.03173 4.90695 37972 ft 499 kts 27°
2026-05-04 14:48 42.09124 4.95524 37969 ft 499 kts 27°
2026-05-04 14:48 42.15068 5.00353 37969 ft 499 kts 27°
2026-05-04 14:49 42.21011 5.05190 37976 ft 499 kts 27°
2026-05-04 14:49 42.26947 5.10036 37978 ft 499 kts 27°
2026-05-04 14:50 42.32890 5.14901 37992 ft 500 kts 27°
2026-05-04 14:50 42.38837 5.19775 37986 ft 499 kts 27°
2026-05-04 14:51 42.44783 5.24660 37980 ft 499 kts 27°
2026-05-04 14:51 42.50722 5.29549 38012 ft 500 kts 27°
2026-05-04 14:52 42.56666 5.34452 37981 ft 500 kts 27°
2026-05-04 14:52 42.62616 5.39381 37998 ft 501 kts 27°
2026-05-04 14:53 42.68567 5.44322 37998 ft 500 kts 27°
2026-05-04 14:53 42.74462 5.49219 38005 ft 500 kts 27°
2026-05-04 14:54 42.80396 5.54159 38001 ft 499 kts 27°
2026-05-04 14:54 42.86326 5.59110 37999 ft 499 kts 27°
2026-05-04 14:55 42.92244 5.64067 38026 ft 500 kts 27°
2026-05-04 14:55 42.98169 5.69035 38018 ft 500 kts 27°
2026-05-04 14:56 43.04098 5.74003 38004 ft 499 kts 27°
2026-05-04 14:56 43.10017 5.78987 38044 ft 499 kts 27°
2026-05-04 14:57 43.15925 5.83998 38042 ft 500 kts 27°
2026-05-04 14:57 43.21851 5.89014 38042 ft 500 kts 27°
2026-05-04 14:58 43.27767 5.94022 38067 ft 500 kts 27°
2026-05-04 14:58 43.33678 5.99043 38055 ft 500 kts 27°
2026-05-04 14:59 43.39831 6.03124 38055 ft 488 kts 11°
2026-05-04 14:59 43.46394 6.04755 38048 ft 474 kts 356°
2026-05-04 15:00 43.49682 6.05068 38061 ft 474 kts 356°
2026-05-04 15:00 43.56273 6.05721 38059 ft 475 kts 356°
2026-05-04 15:01 43.66169 6.06733 38055 ft 475 kts 357°
2026-05-04 15:01 43.72728 6.07401 38069 ft 475 kts 358°
2026-05-04 15:02 43.79251 6.09397 38049 ft 489 kts 16°
2026-05-04 15:02 43.85427 6.13475 38057 ft 492 kts 21°
2026-05-04 15:03 43.91568 6.17664 38078 ft 491 kts 21°
2026-05-04 15:03 43.97695 6.21845 38075 ft 490 kts 21°
2026-05-04 15:04 44.03800 6.26026 38082 ft 490 kts 21°
2026-05-04 15:04 44.09925 6.30238 38082 ft 490 kts 21°
2026-05-04 15:05 44.16036 6.34436 38083 ft 489 kts 21°
2026-05-04 15:05 44.22118 6.38636 38079 ft 489 kts 21°
2026-05-04 15:06 44.28203 6.42849 38109 ft 488 kts 22°
2026-05-04 15:07 44.37323 6.49153 38081 ft 487 kts 21°
2026-05-04 15:07 44.43383 6.53372 38115 ft 486 kts 22°
2026-05-04 15:08 44.49390 6.57563 38127 ft 485 kts 22°
2026-05-04 15:08 44.55432 6.61777 38129 ft 484 kts 22°
2026-05-04 15:09 44.61450 6.65988 38129 ft 483 kts 22°
2026-05-04 15:09 44.67473 6.70210 38142 ft 483 kts 22°
2026-05-04 15:10 44.76514 6.76439 38134 ft 479 kts 16°
2026-05-04 15:10 44.82890 6.78563 38152 ft 466 kts 359°
2026-05-04 15:11 44.86065 6.78647 38140 ft 458 kts 351°
2026-05-04 15:11 44.92430 6.78222 38142 ft 458 kts 351°
2026-05-04 15:12 44.98795 6.77806 38143 ft 457 kts 351°
2026-05-04 15:12 45.05151 6.77386 38156 ft 458 kts 351°
2026-05-04 15:13 45.11526 6.76964 38149 ft 458 kts 351°
2026-05-04 15:13 45.17895 6.76542 38127 ft 458 kts 351°
2026-05-04 15:14 45.24263 6.76124 38142 ft 458 kts 352°
2026-05-04 15:14 45.30633 6.75696 38136 ft 458 kts 351°
2026-05-04 15:15 45.36993 6.75277 38131 ft 458 kts 352°
2026-05-04 15:15 45.43350 6.74850 38138 ft 458 kts 352°
2026-05-04 15:16 45.52898 6.74200 38132 ft 458 kts 351°
2026-05-04 15:17 45.62436 6.73539 38134 ft 457 kts 352°
2026-05-04 15:17 45.71924 6.72882 38096 ft 457 kts 352°
2026-05-04 15:18 45.78299 6.72620 38108 ft 462 kts 359°
2026-05-04 15:19 45.87627 6.76614 38085 ft 474 kts 21°
2026-05-04 15:19 45.96644 6.82498 38074 ft 474 kts 20°
2026-05-04 15:20 46.02655 6.86408 38082 ft 475 kts 21°
2026-05-04 15:20 46.08671 6.90351 38065 ft 475 kts 21°
2026-05-04 15:21 46.14682 6.94322 38079 ft 476 kts 21°
2026-05-04 15:22 46.23714 7.00300 38066 ft 475 kts 21°
2026-05-04 15:22 46.32729 7.06281 38067 ft 475 kts 21°
2026-05-04 15:23 46.38740 7.10270 38069 ft 475 kts 21°
2026-05-04 15:23 46.43740 7.13604 38062 ft 475 kts 21°
2026-05-04 15:24 46.55756 7.21648 37616 ft 475 kts 22°
2026-05-04 15:25 46.58750 7.23658 37239 ft 474 kts 22°
2026-05-04 15:25 46.61752 7.25671 36506 ft 475 kts 22°
2026-05-04 15:25 46.64756 7.27687 35738 ft 476 kts 22°
2026-05-04 15:26 46.70818 7.31770 34085 ft 483 kts 23°
2026-05-04 15:26 46.73844 7.33817 33542 ft 477 kts 24°
2026-05-04 15:26 46.79810 7.37853 32364 ft 468 kts 24°
2026-05-04 15:27 46.82671 7.39968 31799 ft 465 kts 32°
2026-05-04 15:27 46.87536 7.45977 30678 ft 455 kts 52°
2026-05-04 15:28 46.91454 7.53166 29522 ft 450 kts 54°
2026-05-04 15:28 46.93398 7.56741 28984 ft 445 kts 54°
2026-05-04 15:28 46.97205 7.63757 27936 ft 436 kts 54°
2026-05-04 15:29 46.99080 7.67223 27427 ft 432 kts 54°
2026-05-04 15:30 47.05142 7.78467 25850 ft 420 kts 53°
2026-05-04 15:30 47.10557 7.88520 24445 ft 418 kts 53°
2026-05-04 15:31 47.13946 7.95404 23436 ft 413 kts 64°
2026-05-04 15:31 47.15182 7.99194 22913 ft 409 kts 67°